Theta_e
358 351 351 355 351 349 349 351 359 360 362 363 365 364 364 361 360 362 360 359 357 351
356 356 353 357 357 351 356 351 355 358 359 361 363 364 365 361 361 362 362 361 362 358
355 356 356 356 356 357 355 355 353 356 357 359 361 363 364 360 363 362 360 358 360 360
354 354 354 353 354 356 356 356 356 357 357 358 358 360 362 361 360 362 362 363 361 360
355 356 353 354 354 355 355 356 356 357 358 358 358 360 360 358 357 358 360 361 362 361
354 353 355 355 356 355 356 356 355 356 355 356 357 358 360 360 359 360 360 361 362 362
353 355 355 357 357 355 356 356 356 356 357 357 357 357 357 358 360 361 361 362 363 362
354 356 357 357 357 355 356 357 358 358 357 356 355 353 357 358 360 361 361 361 362 362
355 356 356 357 357 357 355 355 356 355 356 355 353 339 337 351 356 360 360 360 363 364
355 355 356 357 357 358 358 357 357 355 355 356 357 333 332 337 355 359 361 362 361 358
355 355 356 356 355 357 355 357 358 357 358 357 358 332 329 333 353 359 361 362 363 363
354 355 356 355 356 357 355 354 355 356 358 358 359 329 327 333 352 354 359 361 363 363
355 355 355 357 358 359 357 356 355 355 357 347 359 332 324 331 351 354 352 360 364 338
357 356 358 358 360 360 358 359 358 358 360 359 355 356 323 320 353 353 354 354 355 358
Wind_Speed
16 12 12 13 11 10 9 9 9 10 9 9 8 7 6 5 5 5 5 6 5 3
15 15 13 14 12 10 9 8 10 10 10 10 10 9 8 7 7 6 6 6 6 6
17 16 15 13 13 12 10 10 10 11 10 10 10 10 9 8 8 8 7 6 6 6
16 17 15 14 14 13 12 11 12 11 11 11 11 10 10 10 10 10 10 9 8 9
17 16 17 16 16 15 14 13 13 12 12 11 11 10 11 11 11 12 12 12 10 11
18 17 17 17 15 15 14 14 14 13 13 13 12 11 11 12 12 12 12 12 12 12
19 19 18 16 15 16 15 14 14 14 14 13 13 13 13 13 13 13 12 12 12 13
19 18 17 15 16 16 15 14 14 14 15 15 14 12 15 15 14 13 13 13 13 13
18 17 17 16 16 15 16 15 14 15 15 15 13 15 15 14 14 14 14 13 14 14
18 18 17 16 16 16 17 15 15 16 16 16 16 14 16 17 15 14 14 14 14 14
19 18 16 16 17 16 15 15 14 15 16 15 14 13 16 16 17 15 17 16 16 16
18 17 17 17 16 14 14 14 14 15 16 16 16 16 17 15 17 17 18 16 17 17
17 17 17 16 17 15 15 15 14 16 16 17 17 14 18 18 13 15 14 15 16 17
17 18 17 16 14 14 14 13 14 15 14 16 16 16 18 20 15 14 13 14 13 13
Wind_Direction
201 208 214 211 218 223 224 219 203 203 211 214 221 213 211 231 234 215 219 221 226 245
202 208 213 215 211 217 219 219 216 210 212 217 221 221 218 232 239 231 226 233 234 237
202 204 207 208 211 209 209 210 207 212 214 219 220 222 222 227 230 232 232 238 240 241
208 206 205 209 212 209 200 200 205 211 213 220 223 220 221 233 240 231 239 239 235 240
203 204 204 208 209 208 202 200 205 211 213 217 224 222 222 230 236 233 239 241 239 241
201 202 203 207 206 206 205 203 205 211 214 216 222 222 223 230 234 236 238 243 243 249
198 200 206 203 200 203 206 204 203 208 214 214 219 227 231 230 233 237 238 242 244 248
199 201 201 201 199 201 208 209 206 207 216 217 220 225 225 227 229 234 239 243 245 246
194 197 198 197 197 198 205 211 210 212 216 217 222 220 211 222 228 234 238 242 243 248
190 194 198 197 195 200 204 206 213 214 217 221 223 212 209 209 232 237 238 240 244 249
190 193 193 195 198 201 202 207 210 216 219 223 227 204 208 208 228 239 241 241 240 243
188 190 190 196 198 199 200 206 212 216 218 221 229 201 204 199 227 237 240 241 240 239
184 189 193 194 197 198 201 209 212 219 220 220 227 206 202 199 228 234 239 239 239 228
185 190 193 194 196 197 202 211 213 220 222 225 222 228 201 197 220 233 234 239 240 240